軌道要素
Epoch 2005 July 9.0 TT = JDT 2453560.5
T 2005 July 13.77969 TT                                 MPC
q   0.9984763            (2000.0)            P               Q
n   0.18463703     Peri.  343.34818     -0.99421027     -0.10180729
a   3.0543831      Node   190.98105     +0.10698873     -0.96759062
e   0.6731005      Incl.   10.39474     -0.00996762     -0.23109235
P   5.34
From 146 observations 2000 Apr. 7-2011 June 10, mean residual 0".71.
 
  |